Total_Precipitation_Accumulation
0.00 0.00 0.04 0.03 0.01 0.01 0.01 0.02 0.04 0.06 0.09 0.09 0.08 0.09 0.09 0.07 0.07 0.07 0.04 0.02 0.01 0.01 0.04 0.05 0.06 0.06 0.05 0.05 0.04 0.02 0.01 0.00 0.00 0.00 0.01 0.00 0.00 0.00 0.00 0.00 0.02 0.00 0.00
0.00 0.00 0.03 0.02 0.01 0.01 0.01 0.03 0.03 0.03 0.05 0.08 0.09 0.11 0.12 0.08 0.07 0.06 0.04 0.02 0.01 0.01 0.02 0.03 0.03 0.04 0.05 0.04 0.03 0.01 0.00 0.00 0.00 0.00 0.00 0.00 0.00 0.00 0.00 0.00 0.01 0.00 0.00
0.00 0.01 0.02 0.02 0.01 0.01 0.01 0.03 0.04 0.03 0.02 0.03 0.06 0.10 0.12 0.13 0.10 0.06 0.04 0.02 0.01 0.01 0.01 0.01 0.01 0.02 0.02 0.02 0.01 0.01 0.00 0.00 0.00 0.00 0.00 0.01 0.00 0.00 0.00 0.00 0.00 0.00 0.00
0.00 0.00 0.01 0.01 0.01 0.01 0.01 0.02 0.04 0.05 0.03 0.04 0.09 0.10 0.09 0.11 0.09 0.08 0.07 0.04 0.04 0.02 0.01 0.01 0.01 0.01 0.01 0.00 0.00 0.00 0.00 0.00 0.00 0.00 0.01 0.05 0.03 0.01 0.00 0.00 0.00 0.00 0.00
0.00 0.00 0.00 0.01 0.01 0.01 0.01 0.02 0.05 0.07 0.05 0.06 0.09 0.10 0.07 0.08 0.10 0.09 0.10 0.10 0.08 0.04 0.02 0.01 0.01 0.01 0.01 0.01 0.00 0.00 0.00 0.00 0.00 0.00 0.02 0.06 0.07 0.03 0.01 0.01 0.01 0.01 0.00
0.00 0.00 0.00 0.01 0.01 0.01 0.01 0.01 0.03 0.05 0.07 0.07 0.09 0.09 0.09 0.11 0.10 0.07 0.09 0.10 0.08 0.04 0.02 0.04 0.04 0.03 0.02 0.01 0.01 0.01 0.01 0.01 0.01 0.01 0.01 0.03 0.10 0.07 0.03 0.05 0.07 0.06 0.05
0.00 0.00 0.01 0.01 0.01 0.01 0.01 0.01 0.01 0.02 0.03 0.05 0.08 0.10 0.09 0.09 0.10 0.08 0.06 0.05 0.04 0.02 0.02 0.07 0.10 0.09 0.06 0.04 0.04 0.04 0.03 0.04 0.02 0.01 0.01 0.04 0.09 0.06 0.07 0.14 0.19 0.17 0.16
0.00 0.01 0.01 0.01 0.01 0.01 0.01 0.01 0.01 0.01 0.02 0.02 0.04 0.06 0.05 0.02 0.02 0.03 0.03 0.04 0.02 0.02 0.05 0.08 0.08 0.11 0.14 0.11 0.08 0.07 0.06 0.06 0.05 0.04 0.03 0.06 0.06 0.08 0.16 0.24 0.29 0.26 0.26
0.00 0.00 0.01 0.01 0.01 0.01 0.01 0.01 0.01 0.01 0.01 0.01 0.01 0.01 0.01 0.01 0.01 0.01 0.01 0.01 0.01 0.01 0.03 0.05 0.04 0.05 0.10 0.10 0.08 0.07 0.07 0.07 0.08 0.11 0.08 0.15 0.19 0.22 0.31 0.36 0.37 0.34 0.30
0.00 0.00 0.00 0.00 0.01 0.01 0.01 0.01 0.01 0.01 0.01 0.01 0.01 0.01 0.00 0.00 0.00 0.01 0.02 0.03 0.02 0.02 0.03 0.03 0.03 0.04 0.08 0.09 0.10 0.11 0.09 0.06 0.04 0.04 0.13 0.16 0.20 0.37 0.53 0.58 0.55 0.50 0.43
0.01 0.01 0.00 0.00 0.01 0.01 0.01 0.00 0.00 0.00 0.01 0.01 0.01 0.00 0.00 0.01 0.02 0.04 0.03 0.07 0.07 0.07 0.07 0.08 0.08 0.07 0.07 0.08 0.15 0.21 0.15 0.06 0.02 0.01 0.04 0.07 0.14 0.37 0.62 0.66 0.69 0.72 0.65
0.01 0.01 0.00 0.00 0.00 0.00 0.00 0.00 0.00 0.00 0.00 0.00 0.03 0.03 0.03 0.04 0.06 0.03 0.03 0.11 0.21 0.26 0.24 0.26 0.26 0.18 0.18 0.23 0.52 0.52 0.15 0.07 0.04 0.03 0.03 0.07 0.17 0.37 0.61 0.63 0.68 0.78 0.77
0.00 0.00 0.00 0.00 0.00 0.00 0.00 0.00 0.00 0.00 0.02 0.01 0.02 0.04 0.06 0.06 0.03 0.02 0.04 0.09 0.15 0.20 0.32 0.48 0.47 0.33 0.41 0.43 0.43 0.33 0.07 0.05 0.06 0.06 0.06 0.15 0.34 0.50 0.68 0.70 0.65 0.67 0.69
0.00 0.00 0.00 0.00 0.00 0.00 0.00 0.00 0.00 0.00 0.01 0.00 0.01 0.01 0.02 0.03 0.05 0.06 0.13 0.14 0.19 0.19 0.31 0.35 0.40 0.24 0.16 0.13 0.12 0.10 0.06 0.08 0.10 0.15 0.20 0.13 0.28 0.49 0.74 0.83 0.72 0.67 0.63
0.00 0.00 0.00 0.00 0.00 0.01 0.01 0.01 0.00 0.00 0.00 0.00 0.00 0.01 0.01 0.03 0.05 0.11 0.15 0.18 0.11 0.14 0.21 0.26 0.17 0.18 0.16 0.11 0.07 0.07 0.07 0.07 0.10 0.20 0.28 0.21 0.37 0.49 0.59 0.78 0.83 0.78 0.71
0.00 0.00 0.00 0.00 0.00 0.01 0.01 0.00 0.00 0.00 0.00 0.00 0.00 0.01 0.01 0.02 0.08 0.15 0.17 0.21 0.16 0.16 0.23 0.29 0.21 0.32 0.23 0.17 0.12 0.08 0.07 0.07 0.07 0.10 0.14 0.15 0.18 0.26 0.33 0.56 0.79 0.81 0.78
0.02 0.01 0.01 0.00 0.01 0.02 0.01 0.01 0.01 0.01 0.00 0.00 0.00 0.01 0.03 0.05 0.17 0.21 0.22 0.23 0.27 0.24 0.33 0.36 0.35 0.34 0.26 0.21 0.18 0.12 0.11 0.11 0.10 0.11 0.11 0.14 0.12 0.12 0.19 0.38 0.60 0.70 0.67
0.04 0.04 0.04 0.03 0.03 0.05 0.08 0.07 0.06 0.05 0.04 0.03 0.03 0.03 0.08 0.16 0.28 0.39 0.32 0.30 0.42 0.40 0.47 0.59 0.55 0.49 0.48 0.36 0.24 0.16 0.15 0.16 0.15 0.15 0.16 0.19 0.16 0.11 0.14 0.27 0.48 0.57 0.65
0.11 0.11 0.11 0.11 0.13 0.20 0.29 0.33 0.26 0.22 0.16 0.13 0.13 0.17 0.25 0.36 0.48 0.66 0.53 0.54 0.56 0.57 0.61 0.46 0.64 0.78 0.73 0.61 0.33 0.21 0.16 0.18 0.17 0.16 0.16 0.16 0.16 0.16 0.13 0.18 0.31 0.40 0.55
0.25 0.25 0.25 0.29 0.43 0.66 0.87 0.80 0.61 0.51 0.41 0.35 0.34 0.41 0.53 0.71 0.80 0.93 0.76 0.74 0.70 0.78 0.81 0.76 0.85 0.82 0.71 0.67 0.37 0.23 0.20 0.19 0.16 0.14 0.14 0.14 0.12 0.12 0.14 0.18 0.25 0.22 0.29
0.45 0.48 0.60 0.82 1.08 1.38 1.35 1.14 1.08 1.03 0.97 0.87 0.78 0.75 0.80 0.83 0.93 1.07 0.92 1.01 0.96 0.90 0.94 0.92 0.98 0.98 0.86 0.85 0.65 0.43 0.22 0.13 0.12 0.13 0.17 0.17 0.14 0.13 0.13 0.15 0.20 0.23 0.31
0.87 1.09 1.24 1.42 1.80 1.94 1.80 1.73 1.71 1.71 1.53 1.49 1.38 1.23 1.05 0.96 1.02 1.05 1.18 1.06 1.05 1.04 1.06 1.12 1.12 0.96 0.81 0.97 0.95 0.86 0.57 0.38 0.25 0.20 0.32 0.37 0.32 0.27 0.21 0.19 0.18 0.23 0.30
0.83 1.03 1.30 1.65 1.99 2.14 2.19 2.23 2.16 2.15 1.91 1.81 1.68 1.53 1.33 1.18 1.12 1.16 1.22 1.19 1.11 1.09 1.06 1.19 1.14 1.05 0.97 1.05 1.12 1.10 0.94 0.70 0.45 0.22 0.27 0.37 0.45 0.46 0.39 0.28 0.20 0.20 0.24
0.65 0.87 1.20 1.53 1.82 2.01 2.16 2.21 2.24 2.24 2.12 2.07 1.95 1.66 1.41 1.26 1.26 1.29 1.25 1.22 1.19 1.14 1.07 1.01 0.97 1.19 1.17 1.06 1.17 1.18 1.13 0.96 0.79 0.46 0.39 0.45 0.49 0.50 0.51 0.40 0.29 0.24 0.25
0.84 1.02 1.22 1.41 1.63 1.79 1.87 1.91 1.96 1.91 1.87 1.83 1.69 1.46 1.31 1.25 1.22 1.15 1.14 1.27 1.30 1.19 1.11 1.07 1.08 1.16 1.16 1.11 1.13 1.19 1.24 1.20 1.08 0.85 0.53 0.44 0.42 0.41 0.44 0.37 0.33 0.30 0.25
0.99 1.15 1.30 1.41 1.59 1.71 1.61 1.50 1.49 1.51 1.54 1.47 1.37 1.27 1.16 1.10 1.05 1.00 1.06 1.18 1.21 1.17 1.11 1.03 1.01 1.09 1.10 1.10 1.10 1.12 1.14 1.09 1.13 1.13 0.82 0.58 0.41 0.24 0.25 0.31 0.32 0.28 0.25